Time,TemperatureF,DewpointF,PressureIn,WindDirection,WindDirectionDegrees,WindSpeedMPH,WindSpeedGustMPH,Humidity,HourlyPrecipIn,Conditions,Clouds,dailyrainin,SoftwareType,DateUTC
2013-07-07 00:00:00,74.2,60.8,29.81,South,169,3.0,3.0,63,0.00,,,0.00,Wunderground v.1.15,2013-07-07 07:00:00,
2013-07-07 00:10:00,74.3,60.4,29.81,South,169,0.0,4.0,62,0.00,,,0.00,Wunderground v.1.15,2013-07-07 07:10:00,
2013-07-07 00:15:00,74.3,60.4,29.81,South,169,0.0,4.0,62,0.00,,,0.00,Wunderground v.1.15,2013-07-07 07:15:00,
2013-07-07 00:20:00,74.2,60.3,29.81,South,169,0.0,4.0,62,0.00,,,0.00,Wunderground v.1.15,2013-07-07 07:20:00,
2013-07-07 00:25:00,74.1,61.1,29.81,South,169,0.0,4.0,64,0.00,,,0.00,Wunderground v.1.15,2013-07-07 07:25:00,
2013-07-07 00:30:00,73.9,61.4,29.81,South,169,0.0,4.0,65,0.00,,,0.00,Wunderground v.1.15,2013-07-07 07:30:00,
2013-07-07 00:35:00,73.7,61.6,29.81,South,169,0.0,4.0,66,0.00,,,0.00,Wunderground v.1.15,2013-07-07 07:35:00,
2013-07-07 00:40:00,73.5,60.6,29.81,South,169,0.0,4.0,64,0.00,,,0.00,Wunderground v.1.15,2013-07-07 07:40:00,
2013-07-07 00:45:00,73.4,62.2,29.81,South,169,0.0,4.0,68,0.00,,,0.00,Wunderground v.1.15,2013-07-07 07:45:00,
2013-07-07 00:50:00,72.9,60.9,29.81,South,169,0.0,4.0,66,0.00,,,0.00,Wunderground v.1.15,2013-07-07 07:50:00,
2013-07-07 00:55:00,72.8,61.2,29.81,South,169,0.0,4.0,67,0.00,,,0.00,Wunderground v.1.15,2013-07-07 07:55:00,
2013-07-07 01:00:00,72.5,60.1,29.81,South,169,0.0,0.0,65,0.00,,,0.00,Wunderground v.1.15,2013-07-07 08:00:00,
2013-07-07 01:10:00,72.2,60.6,29.81,South,169,1.0,1.0,67,0.00,,,0.00,Wunderground v.1.15,2013-07-07 08:10:00,
2013-07-07 01:15:00,72.0,60.9,29.81,South,169,2.0,2.0,68,0.00,,,0.00,Wunderground v.1.15,2013-07-07 08:15:00,
2013-07-07 01:20:00,71.9,60.3,29.81,South,169,2.0,2.0,67,0.00,,,0.00,Wunderground v.1.15,2013-07-07 08:20:00,
2013-07-07 01:25:00,71.9,60.3,29.81,South,184,3.0,5.0,67,0.00,,,0.00,Wunderground v.1.15,2013-07-07 08:25:00,
2013-07-07 01:30:00,72.2,59.3,29.81,South,188,3.0,3.0,64,0.00,,,0.00,Wunderground v.1.15,2013-07-07 08:30:00,
2013-07-07 01:35:00,72.2,60.6,29.81,South,188,3.0,4.0,67,0.00,,,0.00,Wunderground v.1.15,2013-07-07 08:35:00,
2013-07-07 01:40:00,72.0,60.0,29.81,South,189,4.0,4.0,66,0.00,,,0.00,Wunderground v.1.15,2013-07-07 08:40:00,
2013-07-07 01:45:00,71.8,59.8,29.81,South,189,3.0,4.0,66,0.00,,,0.00,Wunderground v.1.15,2013-07-07 08:45:00,
2013-07-07 01:50:00,72.0,59.2,29.81,South,190,3.0,3.0,64,0.00,,,0.00,Wunderground v.1.15,2013-07-07 08:50:00,
2013-07-07 01:55:00,72.1,58.8,29.81,South,189,2.0,3.0,63,0.00,,,0.00,Wunderground v.1.15,2013-07-07 08:55:00,
2013-07-07 02:00:00,72.4,59.1,29.81,South,189,2.0,2.0,63,0.00,,,0.00,Wunderground v.1.15,2013-07-07 09:00:00,
2013-07-07 02:10:00,72.6,59.3,29.81,NNW,329,1.0,7.0,63,0.00,,,0.00,Wunderground v.1.15,2013-07-07 09:10:00,
2013-07-07 02:15:00,71.3,59.8,29.81,NNW,332,2.0,7.0,67,0.00,,,0.00,Wunderground v.1.15,2013-07-07 09:15:00,
2013-07-07 02:20:00,70.3,59.6,29.81,NNW,332,2.0,2.0,69,0.00,,,0.00,Wunderground v.1.15,2013-07-07 09:20:00,
2013-07-07 02:25:00,69.7,59.5,29.81,NNW,332,0.0,5.0,70,0.00,,,0.00,Wunderground v.1.15,2013-07-07 09:25:00,
2013-07-07 02:30:00,69.5,58.9,29.81,NNW,332,0.0,5.0,69,0.00,,,0.00,Wunderground v.1.15,2013-07-07 09:30:00,
2013-07-07 02:35:00,69.4,59.6,29.81,NNW,332,0.0,5.0,71,0.00,,,0.00,Wunderground v.1.15,2013-07-07 09:35:00,
2013-07-07 02:40:00,69.2,59.4,29.81,NNW,332,0.0,5.0,71,0.00,,,0.00,Wunderground v.1.15,2013-07-07 09:40:00,
2013-07-07 02:45:00,69.0,59.6,29.81,SSW,194,1.0,5.0,72,0.00,,,0.00,Wunderground v.1.15,2013-07-07 09:45:00,
2013-07-07 02:50:00,68.7,59.7,29.81,South,188,3.0,3.0,73,0.00,,,0.00,Wunderground v.1.15,2013-07-07 09:50:00,
2013-07-07 02:55:00,68.7,59.3,29.81,South,184,2.0,5.0,72,0.00,,,0.00,Wunderground v.1.15,2013-07-07 09:55:00,
2013-07-07 03:00:00,68.9,59.1,29.81,South,182,1.0,1.0,71,0.00,,,0.00,Wunderground v.1.15,2013-07-07 10:00:00,
2013-07-07 03:10:00,68.9,59.1,29.81,South,176,2.0,2.0,71,0.00,,,0.00,Wunderground v.1.15,2013-07-07 10:10:00,
2013-07-07 03:15:00,69.1,59.3,29.81,South,176,1.0,3.0,71,0.00,,,0.00,Wunderground v.1.15,2013-07-07 10:15:00,
2013-07-07 03:20:00,69.1,58.9,29.81,South,175,0.0,3.0,70,0.00,,,0.00,Wunderground v.1.15,2013-07-07 10:20:00,
2013-07-07 03:25:00,69.3,59.1,29.81,South,174,0.0,3.0,70,0.00,,,0.00,Wunderground v.1.15,2013-07-07 10:25:00,
2013-07-07 03:30:00,69.4,59.2,29.81,South,174,0.0,3.0,70,0.00,,,0.00,Wunderground v.1.15,2013-07-07 10:30:00,
2013-07-07 03:35:00,69.4,59.2,29.81,South,175,0.0,5.0,70,0.00,,,0.00,Wunderground v.1.15,2013-07-07 10:35:00,
2013-07-07 03:40:00,69.4,59.2,29.81,South,175,1.0,3.0,70,0.00,,,0.00,Wunderground v.1.15,2013-07-07 10:40:00,
2013-07-07 03:45:00,69.4,59.2,29.81,South,175,0.0,3.0,70,0.00,,,0.00,Wunderground v.1.15,2013-07-07 10:45:00,
2013-07-07 03:50:00,69.2,59.4,29.81,South,175,1.0,3.0,71,0.00,,,0.00,Wunderground v.1.15,2013-07-07 10:50:00,
2013-07-07 03:55:00,69.0,58.8,29.81,South,175,1.0,4.0,70,0.00,,,0.00,Wunderground v.1.15,2013-07-07 10:55:00,
2013-07-07 04:00:00,69.0,58.8,29.81,South,175,2.0,2.0,70,0.00,,,0.00,Wunderground v.1.15,2013-07-07 11:00:00,
2013-07-07 04:10:00,68.8,59.0,29.81,South,175,1.0,1.0,71,0.00,,,0.00,Wunderground v.1.15,2013-07-07 11:10:00,
2013-07-07 04:15:00,68.6,59.2,29.81,South,175,0.0,4.0,72,0.00,,,0.00,Wunderground v.1.15,2013-07-07 11:15:00,
2013-07-07 04:20:00,68.4,58.6,29.81,South,175,0.0,4.0,71,0.00,,,0.00,Wunderground v.1.15,2013-07-07 11:20:00,
2013-07-07 04:25:00,68.2,59.2,29.81,South,175,1.0,4.0,73,0.00,,,0.00,Wunderground v.1.15,2013-07-07 11:25:00,
2013-07-07 04:30:00,68.0,59.0,29.81,South,176,2.0,4.0,73,0.00,,,0.00,Wunderground v.1.15,2013-07-07 11:30:00,
2013-07-07 04:35:00,67.9,58.9,29.81,South,176,2.0,4.0,73,0.00,,,0.00,Wunderground v.1.15,2013-07-07 11:35:00,
2013-07-07 04:45:00,68.0,58.6,29.81,South,176,1.0,4.0,72,0.00,,,0.00,Wunderground v.1.15,2013-07-07 11:45:00,
2013-07-07 04:50:00,68.0,58.6,29.81,South,176,1.0,1.0,72,0.00,,,0.00,Wunderground v.1.15,2013-07-07 11:50:00,
2013-07-07 04:55:00,67.9,58.5,29.81,South,176,1.0,4.0,72,0.00,,,0.00,Wunderground v.1.15,2013-07-07 11:55:00,
2013-07-07 05:00:00,67.9,58.9,29.81,South,177,3.0,4.0,73,0.00,,,0.00,Wunderground v.1.15,2013-07-07 12:00:00,
2013-07-07 05:10:00,67.6,58.6,29.81,South,177,2.0,2.0,73,0.00,,,0.00,Wunderground v.1.15,2013-07-07 12:10:00,
2013-07-07 05:15:00,67.6,58.2,29.81,South,177,0.0,4.0,72,0.00,,,0.00,Wunderground v.1.15,2013-07-07 12:15:00,
2013-07-07 05:20:00,67.7,58.7,29.81,South,174,0.0,4.0,73,0.00,,,0.00,Wunderground v.1.15,2013-07-07 12:20:00,
2013-07-07 05:25:00,67.7,58.7,29.81,South,174,0.0,4.0,73,0.00,,,0.00,Wunderground v.1.15,2013-07-07 12:25:00,
2013-07-07 05:30:00,67.7,58.7,29.81,South,174,0.0,4.0,73,0.00,,,0.00,Wunderground v.1.15,2013-07-07 12:30:00,
2013-07-07 05:35:00,67.8,59.2,29.81,South,174,0.0,4.0,74,0.00,,,0.00,Wunderground v.1.15,2013-07-07 12:35:00,
2013-07-07 05:40:00,67.5,59.3,29.81,South,174,0.0,4.0,75,0.00,,,0.00,Wunderground v.1.15,2013-07-07 12:40:00,
2013-07-07 05:45:00,67.6,59.0,29.81,South,175,0.0,4.0,74,0.00,,,0.00,Wunderground v.1.15,2013-07-07 12:45:00,
2013-07-07 05:50:00,68.2,59.2,29.81,South,175,0.0,4.0,73,0.00,,,0.00,Wunderground v.1.15,2013-07-07 12:50:00,
2013-07-07 05:55:00,68.7,59.3,29.81,South,175,0.0,4.0,72,0.00,,,0.00,Wunderground v.1.15,2013-07-07 12:55:00,
2013-07-07 06:00:00,69.0,59.6,29.81,South,175,1.0,4.0,72,0.00,,,0.00,Wunderground v.1.15,2013-07-07 13:00:00,
2013-07-07 06:10:00,69.5,60.5,29.81,South,175,2.0,2.0,73,0.00,,,0.00,Wunderground v.1.15,2013-07-07 13:10:00,
2013-07-07 06:15:00,69.8,60.4,29.81,South,175,0.0,4.0,72,0.00,,,0.00,Wunderground v.1.15,2013-07-07 13:15:00,
2013-07-07 06:20:00,70.2,61.1,29.81,South,175,0.0,4.0,73,0.00,,,0.00,Wunderground v.1.15,2013-07-07 13:20:00,
2013-07-07 06:25:00,70.5,61.0,29.81,South,175,0.0,4.0,72,0.00,,,0.00,Wunderground v.1.15,2013-07-07 13:25:00,
2013-07-07 06:30:00,70.8,60.9,29.81,South,175,0.0,4.0,71,0.00,,,0.00,Wunderground v.1.15,2013-07-07 13:30:00,
2013-07-07 06:35:00,71.1,60.4,29.81,South,175,1.0,4.0,69,0.00,,,0.00,Wunderground v.1.15,2013-07-07 13:35:00,
2013-07-07 06:40:00,71.5,60.0,29.81,South,175,0.0,4.0,67,0.00,,,0.00,Wunderground v.1.15,2013-07-07 13:40:00,
2013-07-07 06:45:00,71.5,61.6,29.81,ESE,120,0.0,4.0,71,0.00,,,0.00,Wunderground v.1.15,2013-07-07 13:45:00,
2013-07-07 06:50:00,71.1,61.6,29.81,ESE,120,0.0,4.0,72,0.00,,,0.00,Wunderground v.1.15,2013-07-07 13:50:00,
2013-07-07 06:55:00,71.0,61.1,29.81,ESE,120,0.0,4.0,71,0.00,,,0.00,Wunderground v.1.15,2013-07-07 13:55:00,
2013-07-07 07:00:00,71.2,60.5,29.81,ESE,120,0.0,0.0,69,0.00,,,0.00,Wunderground v.1.15,2013-07-07 14:00:00,
2013-07-07 07:10:00,72.3,61.1,29.81,ESE,120,0.0,0.0,68,0.00,,,0.00,Wunderground v.1.15,2013-07-07 14:10:00,
2013-07-07 07:15:00,73.0,60.5,29.81,ESE,120,0.0,0.0,65,0.00,,,0.00,Wunderground v.1.15,2013-07-07 14:15:00,
2013-07-07 07:20:00,73.7,61.2,29.81,ESE,120,0.0,0.0,65,0.00,,,0.00,Wunderground v.1.15,2013-07-07 14:20:00,
2013-07-07 07:25:00,74.3,61.3,29.81,ESE,120,0.0,0.0,64,0.00,,,0.00,Wunderground v.1.15,2013-07-07 14:25:00,
2013-07-07 07:30:00,75.5,63.3,29.81,ESE,120,0.0,0.0,66,0.00,,,0.00,Wunderground v.1.15,2013-07-07 14:30:00,
2013-07-07 07:35:00,76.6,61.2,29.81,ESE,120,0.0,0.0,59,0.00,,,0.00,Wunderground v.1.15,2013-07-07 14:35:00,
2013-07-07 07:40:00,77.7,61.7,29.81,ESE,120,0.0,0.0,58,0.00,,,0.00,Wunderground v.1.15,2013-07-07 14:40:00,
2013-07-07 07:45:00,78.8,60.7,29.81,ESE,121,0.0,0.0,54,0.00,,,0.00,Wunderground v.1.15,2013-07-07 14:45:00,
2013-07-07 07:50:00,79.4,59.1,29.81,SSE,153,0.0,0.0,50,0.00,,,0.00,Wunderground v.1.15,2013-07-07 14:50:00,
2013-07-07 08:00:00,80.3,58.8,29.81,South,177,1.0,3.0,48,0.00,,,0.00,Wunderground v.1.15,2013-07-07 15:00:00,
2013-07-07 08:10:00,81.3,58.5,29.81,SSW,193,1.0,1.0,46,0.00,,,0.00,Wunderground v.1.15,2013-07-07 15:10:00,
2013-07-07 08:15:00,82.0,57.9,29.81,SSW,205,1.0,3.0,44,0.00,,,0.00,Wunderground v.1.15,2013-07-07 15:15:00,
2013-07-07 08:25:00,83.3,57.8,29.81,SSW,205,0.0,3.0,42,0.00,,,0.00,Wunderground v.1.15,2013-07-07 15:25:00,
2013-07-07 08:30:00,83.6,57.4,29.81,SSW,205,0.0,3.0,41,0.00,,,0.00,Wunderground v.1.15,2013-07-07 15:30:00,
2013-07-07 08:35:00,84.1,57.2,29.81,SSW,205,0.0,3.0,40,0.00,,,0.00,Wunderground v.1.15,2013-07-07 15:35:00,
2013-07-07 08:40:00,84.5,56.8,29.81,WSW,246,2.0,3.0,39,0.00,,,0.00,Wunderground v.1.15,2013-07-07 15:40:00,
2013-07-07 08:50:00,84.1,57.9,29.81,WSW,246,3.0,3.0,41,0.00,,,0.00,Wunderground v.1.15,2013-07-07 15:50:00,
2013-07-07 08:55:00,84.0,58.4,29.81,West,259,3.0,4.0,42,0.00,,,0.00,Wunderground v.1.15,2013-07-07 15:55:00,
2013-07-07 09:00:00,84.1,57.2,29.81,West,259,3.0,3.0,40,0.00,,,0.00,Wunderground v.1.15,2013-07-07 16:00:00,
2013-07-07 09:10:00,84.6,56.2,29.81,West,265,2.0,2.0,38,0.00,,,0.00,Wunderground v.1.15,2013-07-07 16:10:00,
2013-07-07 09:15:00,85.2,58.2,29.81,West,265,1.0,3.0,40,0.00,,,0.00,Wunderground v.1.15,2013-07-07 16:15:00,
2013-07-07 09:20:00,86.1,56.8,29.81,West,281,1.0,1.0,37,0.00,,,0.00,Wunderground v.1.15,2013-07-07 16:20:00,
2013-07-07 09:25:00,86.8,57.4,29.81,WNW,288,1.0,5.0,37,0.00,,,0.00,Wunderground v.1.15,2013-07-07 16:25:00,
2013-07-07 09:30:00,87.3,57.1,29.81,WNW,302,1.0,1.0,36,0.00,,,0.00,Wunderground v.1.15,2013-07-07 16:30:00,
2013-07-07 09:35:00,87.8,57.5,29.81,WNW,302,1.0,5.0,36,0.00,,,0.00,Wunderground v.1.15,2013-07-07 16:35:00,
2013-07-07 09:40:00,88.0,56.9,29.81,NW,309,2.0,5.0,35,0.00,,,0.00,Wunderground v.1.15,2013-07-07 16:40:00,
2013-07-07 09:45:00,88.1,57.0,29.81,North,349,3.0,5.0,35,0.00,,,0.00,Wunderground v.1.15,2013-07-07 16:45:00,
2013-07-07 09:50:00,88.5,57.4,29.81,NNW,333,2.0,2.0,35,0.00,,,0.00,Wunderground v.1.15,2013-07-07 16:50:00,
2013-07-07 10:00:00,89.0,57.8,29.81,North,355,2.0,2.0,35,0.00,,,0.00,Wunderground v.1.15,2013-07-07 17:00:00,
2013-07-07 10:10:00,89.6,56.7,29.81,North,360,1.0,1.0,33,0.00,,,0.00,Wunderground v.1.15,2013-07-07 17:10:00,
2013-07-07 10:15:00,90.0,57.9,29.81,North,360,1.0,6.0,34,0.00,,,0.00,Wunderground v.1.15,2013-07-07 17:15:00,
2013-07-07 10:20:00,90.3,55.6,29.81,NNE,21,1.0,1.0,31,0.00,,,0.00,Wunderground v.1.15,2013-07-07 17:20:00,
2013-07-07 10:25:00,90.4,56.5,29.81,NNE,32,1.0,6.0,32,0.00,,,0.00,Wunderground v.1.15,2013-07-07 17:25:00,
2013-07-07 10:30:00,91.0,57.9,29.81,North,11,1.0,6.0,33,0.00,,,0.00,Wunderground v.1.15,2013-07-07 17:30:00,
2013-07-07 10:35:00,91.1,57.1,29.81,North,355,1.0,6.0,32,0.00,,,0.00,Wunderground v.1.15,2013-07-07 17:35:00,
2013-07-07 10:40:00,91.3,57.3,29.81,North,355,1.0,1.0,32,0.00,,,0.00,Wunderground v.1.15,2013-07-07 17:40:00,
2013-07-07 10:45:00,91.4,56.5,29.81,North,355,1.0,3.0,31,0.00,,,0.00,Wunderground v.1.15,2013-07-07 17:45:00,
2013-07-07 10:50:00,91.5,55.7,29.81,North,355,1.0,6.0,30,0.00,,,0.00,Wunderground v.1.15,2013-07-07 17:50:00,
2013-07-07 10:55:00,91.9,56.0,29.81,NW,306,2.0,6.0,30,0.00,,,0.00,Wunderground v.1.15,2013-07-07 17:55:00,
2013-07-07 11:00:00,92.2,55.4,29.81,NNW,327,3.0,9.0,29,0.00,,,0.00,Wunderground v.1.15,2013-07-07 18:00:00,
2013-07-07 11:10:00,92.3,54.5,29.81,NNW,336,2.0,9.0,28,0.00,,,0.00,Wunderground v.1.15,2013-07-07 18:10:00,
2013-07-07 11:15:00,92.4,54.6,29.81,NNW,339,1.0,9.0,28,0.00,,,0.00,Wunderground v.1.15,2013-07-07 18:15:00,
2013-07-07 11:20:00,93.1,56.1,29.81,North,360,2.0,9.0,29,0.00,,,0.00,Wunderground v.1.15,2013-07-07 18:20:00,
2013-07-07 11:25:00,93.1,55.2,29.81,NNE,14,4.0,9.0,28,0.00,,,0.00,Wunderground v.1.15,2013-07-07 18:25:00,
2013-07-07 11:30:00,93.1,54.2,29.81,North,5,4.0,4.0,27,0.00,,,0.00,Wunderground v.1.15,2013-07-07 18:30:00,
2013-07-07 11:40:00,93.5,52.4,29.81,NNE,13,3.0,3.0,25,0.00,,,0.00,Wunderground v.1.15,2013-07-07 18:40:00,
2013-07-07 11:45:00,93.9,52.7,29.81,North,11,2.0,9.0,25,0.00,,,0.00,Wunderground v.1.15,2013-07-07 18:45:00,
2013-07-07 11:55:00,94.6,52.2,29.81,North,11,1.0,4.0,24,0.00,,,0.00,Wunderground v.1.15,2013-07-07 18:55:00,
2013-07-07 12:00:00,94.9,52.5,29.81,North,5,2.0,2.0,24,0.00,,,0.00,Wunderground v.1.15,2013-07-07 19:00:00,
2013-07-07 12:10:00,95.4,52.9,29.81,NE,55,3.0,3.0,24,0.00,,,0.00,Wunderground v.1.15,2013-07-07 19:10:00,
2013-07-07 12:15:00,95.5,54.1,29.81,North,11,2.0,4.0,25,0.00,,,0.00,Wunderground v.1.15,2013-07-07 19:15:00,
2013-07-07 12:20:00,95.4,52.9,29.81,NNE,15,2.0,2.0,24,0.00,,,0.00,Wunderground v.1.15,2013-07-07 19:20:00,
2013-07-07 12:25:00,95.6,53.1,29.81,NNE,24,2.0,5.0,24,0.00,,,0.00,Wunderground v.1.15,2013-07-07 19:25:00,
2013-07-07 12:30:00,96.5,53.8,29.81,NNE,22,1.0,1.0,24,0.00,,,0.00,Wunderground v.1.15,2013-07-07 19:30:00,
2013-07-07 12:35:00,96.9,54.1,29.81,NNE,26,1.0,4.0,24,0.00,,,0.00,Wunderground v.1.15,2013-07-07 19:35:00,
2013-07-07 12:40:00,96.9,53.0,29.81,NNE,24,2.0,5.0,23,0.00,,,0.00,Wunderground v.1.15,2013-07-07 19:40:00,
2013-07-07 12:45:00,96.7,52.8,29.81,East,86,2.0,5.0,23,0.00,,,0.00,Wunderground v.1.15,2013-07-07 19:45:00,
2013-07-07 12:50:00,96.7,54.0,29.81,North,5,4.0,4.0,24,0.00,,,0.00,Wunderground v.1.15,2013-07-07 19:50:00,
2013-07-07 12:55:00,96.4,53.7,29.81,NNE,19,4.0,5.0,24,0.00,,,0.00,Wunderground v.1.15,2013-07-07 19:55:00,
2013-07-07 13:00:00,96.4,53.7,29.81,NW,306,2.0,2.0,24,0.00,,,0.00,Wunderground v.1.15,2013-07-07 20:00:00,
2013-07-07 13:10:00,96.6,53.9,29.81,NW,311,4.0,6.0,24,0.00,,,0.00,Wunderground v.1.15,2013-07-07 20:10:00,
2013-07-07 13:15:00,96.5,53.8,29.81,NW,321,4.0,6.0,24,0.00,,,0.00,Wunderground v.1.15,2013-07-07 20:15:00,
2013-07-07 13:20:00,96.7,54.0,29.81,NW,325,2.0,6.0,24,0.00,,,0.00,Wunderground v.1.15,2013-07-07 20:20:00,
2013-07-07 13:25:00,96.5,53.8,29.81,NNW,331,2.0,6.0,24,0.00,,,0.00,Wunderground v.1.15,2013-07-07 20:25:00,
2013-07-07 13:30:00,96.6,52.7,29.81,NW,325,1.0,1.0,23,0.00,,,0.00,Wunderground v.1.15,2013-07-07 20:30:00,
2013-07-07 13:35:00,97.1,53.1,29.81,NW,325,0.0,6.0,23,0.00,,,0.00,Wunderground v.1.15,2013-07-07 20:35:00,
2013-07-07 13:40:00,97.9,53.8,29.81,NW,325,0.0,6.0,23,0.00,,,0.00,Wunderground v.1.15,2013-07-07 20:40:00,
2013-07-07 13:45:00,97.6,52.3,29.81,WNW,294,2.0,6.0,22,0.00,,,0.00,Wunderground v.1.15,2013-07-07 20:45:00,
2013-07-07 13:50:00,97.9,52.6,29.81,NNE,26,2.0,6.0,22,0.00,,,0.00,Wunderground v.1.15,2013-07-07 20:50:00,
2013-07-07 13:55:00,97.8,51.3,29.81,NNE,15,2.0,6.0,21,0.00,,,0.00,Wunderground v.1.15,2013-07-07 20:55:00,
2013-07-07 14:00:00,97.8,51.3,29.81,NNE,26,3.0,7.0,21,0.00,,,0.00,Wunderground v.1.15,2013-07-07 21:00:00,
2013-07-07 14:10:00,97.9,51.3,29.81,North,11,3.0,3.0,21,0.00,,,0.00,Wunderground v.1.15,2013-07-07 21:10:00,
2013-07-07 14:15:00,97.5,51.0,29.81,NNE,15,2.0,8.0,21,0.00,,,0.00,Wunderground v.1.15,2013-07-07 21:15:00,
2013-07-07 14:20:00,97.8,49.9,29.81,NNE,23,4.0,4.0,20,0.00,,,0.00,Wunderground v.1.15,2013-07-07 21:20:00,
2013-07-07 14:25:00,97.2,50.8,29.81,North,360,2.0,7.0,21,0.00,,,0.00,Wunderground v.1.15,2013-07-07 21:25:00,
2013-07-07 14:30:00,96.8,50.4,29.81,North,360,0.0,7.0,21,0.00,,,0.00,Wunderground v.1.15,2013-07-07 21:30:00,
2013-07-07 14:35:00,96.4,50.1,29.81,North,360,0.0,7.0,21,0.00,,,0.00,Wunderground v.1.15,2013-07-07 21:35:00,
2013-07-07 14:40:00,96.3,50.0,29.81,North,360,0.0,7.0,21,0.00,,,0.00,Wunderground v.1.15,2013-07-07 21:40:00,
2013-07-07 14:45:00,96.7,50.3,29.81,North,360,0.0,7.0,21,0.00,,,0.00,Wunderground v.1.15,2013-07-07 21:45:00,
2013-07-07 14:50:00,97.0,50.6,29.81,WSW,252,1.0,7.0,21,0.00,,,0.00,Wunderground v.1.15,2013-07-07 21:50:00,
2013-07-07 14:55:00,97.2,53.2,29.81,SSW,199,3.0,12.0,23,0.00,,,0.00,Wunderground v.1.15,2013-07-07 21:55:00,
2013-07-07 15:00:00,97.6,52.3,29.81,SW,223,8.0,16.0,22,0.00,,,0.00,Wunderground v.1.15,2013-07-07 22:00:00,
2013-07-07 15:10:00,97.5,53.5,29.81,SSW,205,11.0,17.0,23,0.00,,,0.00,Wunderground v.1.15,2013-07-07 22:10:00,
2013-07-07 15:15:00,96.0,53.4,29.81,South,184,12.0,17.0,24,0.00,,,0.00,Wunderground v.1.15,2013-07-07 22:15:00,
2013-07-07 15:20:00,94.7,53.4,29.81,SSW,206,12.0,12.0,25,0.00,,,0.00,Wunderground v.1.15,2013-07-07 22:20:00,
2013-07-07 15:25:00,94.3,54.1,29.81,South,187,11.0,16.0,26,0.00,,,0.00,Wunderground v.1.15,2013-07-07 22:25:00,
2013-07-07 15:30:00,94.6,54.4,29.81,SSW,202,9.0,9.0,26,0.00,,,0.00,Wunderground v.1.15,2013-07-07 22:30:00,
2013-07-07 15:35:00,94.6,53.3,29.81,SSW,202,6.0,16.0,25,0.00,,,0.00,Wunderground v.1.15,2013-07-07 22:35:00,
2013-07-07 15:40:00,94.4,53.2,29.81,SSW,210,6.0,16.0,25,0.00,,,0.00,Wunderground v.1.15,2013-07-07 22:40:00,
2013-07-07 15:45:00,94.4,52.0,29.81,SSW,211,8.0,16.0,24,0.00,,,0.00,Wunderground v.1.15,2013-07-07 22:45:00,
2013-07-07 15:50:00,94.2,53.0,29.81,SW,217,8.0,16.0,25,0.00,,,0.00,Wunderground v.1.15,2013-07-07 22:50:00,
2013-07-07 15:55:00,93.7,52.6,29.81,SW,218,9.0,16.0,25,0.00,,,0.00,Wunderground v.1.15,2013-07-07 22:55:00,
2013-07-07 16:00:00,93.6,52.5,29.81,SW,224,11.0,11.0,25,0.00,,,0.00,Wunderground v.1.15,2013-07-07 23:00:00,
2013-07-07 16:10:00,93.5,52.4,29.81,WSW,237,9.0,9.0,25,0.00,,,0.00,Wunderground v.1.15,2013-07-07 23:10:00,
2013-07-07 16:15:00,93.4,52.3,29.81,SW,230,9.0,10.0,25,0.00,,,0.00,Wunderground v.1.15,2013-07-07 23:15:00,
2013-07-07 16:20:00,92.8,51.8,29.81,SW,219,9.0,15.0,25,0.00,,,0.00,Wunderground v.1.15,2013-07-07 23:20:00,
2013-07-07 16:25:00,91.7,54.0,29.81,SSW,202,11.0,15.0,28,0.00,,,0.00,Wunderground v.1.15,2013-07-07 23:25:00,
2013-07-07 16:30:00,90.9,53.3,29.81,SSW,211,10.0,10.0,28,0.00,,,0.00,Wunderground v.1.15,2013-07-07 23:30:00,
2013-07-07 16:35:00,90.7,53.1,29.81,South,171,6.0,15.0,28,0.00,,,0.00,Wunderground v.1.15,2013-07-07 23:35:00,
2013-07-07 16:40:00,89.3,52.9,29.81,ESE,102,4.0,15.0,29,0.00,,,0.00,Wunderground v.1.15,2013-07-07 23:40:00,
2013-07-07 16:50:00,86.7,53.3,29.81,South,180,5.0,5.0,32,0.00,,,0.00,Wunderground v.1.15,2013-07-07 23:50:00,
2013-07-07 16:55:00,86.6,53.2,29.81,SSW,195,5.0,14.0,32,0.00,,,0.00,Wunderground v.1.15,2013-07-07 23:55:00,
2013-07-07 17:00:00,86.7,52.4,29.81,South,173,6.0,16.0,31,0.00,,,0.00,Wunderground v.1.15,2013-07-08 00:00:00,
2013-07-07 17:10:00,86.9,52.6,29.81,SSW,203,5.0,16.0,31,0.00,,,0.00,Wunderground v.1.15,2013-07-08 00:10:00,
2013-07-07 17:15:00,87.1,53.7,29.81,SW,221,8.0,16.0,32,0.00,,,0.00,Wunderground v.1.15,2013-07-08 00:15:00,
2013-07-07 17:20:00,87.4,53.1,29.81,WSW,241,10.0,16.0,31,0.00,,,0.00,Wunderground v.1.15,2013-07-08 00:20:00,
2013-07-07 17:25:00,87.6,53.2,29.81,SW,217,11.0,16.0,31,0.00,,,0.00,Wunderground v.1.15,2013-07-08 00:25:00,
2013-07-07 17:30:00,87.6,53.2,29.81,SW,222,10.0,10.0,31,0.00,,,0.00,Wunderground v.1.15,2013-07-08 00:30:00,
2013-07-07 17:35:00,87.6,53.2,29.81,WSW,252,8.0,16.0,31,0.00,,,0.00,Wunderground v.1.15,2013-07-08 00:35:00,
2013-07-07 17:40:00,87.5,54.0,29.81,WSW,254,10.0,16.0,32,0.00,,,0.00,Wunderground v.1.15,2013-07-08 00:40:00,
2013-07-07 17:50:00,86.5,54.8,29.81,WSW,254,10.0,16.0,34,0.00,,,0.00,Wunderground v.1.15,2013-07-08 00:50:00,
2013-07-07 17:55:00,86.1,54.5,29.81,SW,218,8.0,16.0,34,0.00,,,0.00,Wunderground v.1.15,2013-07-08 00:55:00,
2013-07-07 18:00:00,85.7,54.9,29.81,SW,229,8.0,15.0,35,0.00,,,0.00,Wunderground v.1.15,2013-07-08 01:00:00,
2013-07-07 18:10:00,84.2,55.1,29.81,SSW,201,11.0,11.0,37,0.00,,,0.00,Wunderground v.1.15,2013-07-08 01:10:00,
2013-07-07 18:15:00,83.3,55.0,29.81,SSW,209,13.0,13.0,38,0.00,,,0.00,Wunderground v.1.15,2013-07-08 01:15:00,
2013-07-07 18:20:00,82.8,55.3,29.81,SSW,203,14.0,14.0,39,0.00,,,0.00,Wunderground v.1.15,2013-07-08 01:20:00,
2013-07-07 18:25:00,82.5,55.0,29.81,SW,214,16.0,18.0,39,0.00,,,0.00,Wunderground v.1.15,2013-07-08 01:25:00,
2013-07-07 18:30:00,82.7,55.2,29.81,SSW,201,15.0,15.0,39,0.00,,,0.00,Wunderground v.1.15,2013-07-08 01:30:00,
2013-07-07 18:35:00,82.9,55.4,29.81,SW,216,14.0,15.0,39,0.00,,,0.00,Wunderground v.1.15,2013-07-08 01:35:00,
2013-07-07 18:40:00,82.9,55.4,29.81,SW,232,11.0,11.0,39,0.00,,,0.00,Wunderground v.1.15,2013-07-08 01:40:00,
2013-07-07 18:45:00,83.7,54.7,29.81,West,267,9.0,15.0,37,0.00,,,0.00,Wunderground v.1.15,2013-07-08 01:45:00,
2013-07-07 18:50:00,84.2,55.1,29.81,SW,219,10.0,15.0,37,0.00,,,0.00,Wunderground v.1.15,2013-07-08 01:50:00,
2013-07-07 18:55:00,84.4,54.5,29.81,SW,217,10.0,15.0,36,0.00,,,0.00,Wunderground v.1.15,2013-07-08 01:55:00,
2013-07-07 19:00:00,84.5,54.6,29.81,SW,220,10.0,15.0,36,0.00,,,0.00,Wunderground v.1.15,2013-07-08 02:00:00,
2013-07-07 19:10:00,84.6,54.7,29.81,SW,219,7.0,7.0,36,0.00,,,0.00,Wunderground v.1.15,2013-07-08 02:10:00,
2013-07-07 19:15:00,84.8,54.1,29.81,SW,220,4.0,15.0,35,0.00,,,0.00,Wunderground v.1.15,2013-07-08 02:15:00,
2013-07-07 19:20:00,85.3,53.8,29.81,SW,233,3.0,15.0,34,0.00,,,0.00,Wunderground v.1.15,2013-07-08 02:20:00,
2013-07-07 19:25:00,85.6,53.2,29.81,WSW,244,6.0,15.0,33,0.00,,,0.00,Wunderground v.1.15,2013-07-08 02:25:00,
2013-07-07 19:30:00,85.6,54.8,29.81,West,279,7.0,15.0,35,0.00,,,0.00,Wunderground v.1.15,2013-07-08 02:30:00,
2013-07-07 19:35:00,84.8,54.1,29.81,WNW,286,10.0,15.0,35,0.00,,,0.00,Wunderground v.1.15,2013-07-08 02:35:00,
2013-07-07 19:45:00,84.5,54.6,29.81,WSW,252,11.0,15.0,36,0.00,,,0.00,Wunderground v.1.15,2013-07-08 02:45:00,
2013-07-07 19:50:00,84.1,55.0,29.81,WNW,282,7.0,15.0,37,0.00,,,0.00,Wunderground v.1.15,2013-07-08 02:50:00,
2013-07-07 19:55:00,82.9,56.8,29.81,WNW,291,5.0,15.0,41,0.00,,,0.00,Wunderground v.1.15,2013-07-08 02:55:00,
2013-07-07 20:00:00,81.9,56.6,29.81,NW,315,6.0,6.0,42,0.00,,,0.00,Wunderground v.1.15,2013-07-08 03:00:00,
2013-07-07 20:10:00,80.0,56.7,29.81,NW,313,6.0,10.0,45,0.00,,,0.00,Wunderground v.1.15,2013-07-08 03:10:00,
2013-07-07 20:15:00,79.9,56.7,29.81,WNW,294,8.0,10.0,45,0.00,,,0.00,Wunderground v.1.15,2013-07-08 03:15:00,
2013-07-07 20:20:00,80.0,57.4,29.81,NW,317,8.0,8.0,46,0.00,,,0.00,Wunderground v.1.15,2013-07-08 03:20:00,
2013-07-07 20:25:00,79.6,57.0,29.81,NNW,327,8.0,10.0,46,0.00,,,0.00,Wunderground v.1.15,2013-07-08 03:25:00,
2013-07-07 20:30:00,79.4,56.8,29.81,NNW,330,9.0,11.0,46,0.00,,,0.00,Wunderground v.1.15,2013-07-08 03:30:00,
2013-07-07 20:35:00,80.0,56.7,29.81,NW,313,8.0,11.0,45,0.00,,,0.00,Wunderground v.1.15,2013-07-08 03:35:00,
2013-07-07 20:40:00,80.3,56.4,29.81,NW,313,6.0,11.0,44,0.00,,,0.00,Wunderground v.1.15,2013-07-08 03:40:00,
2013-07-07 20:45:00,80.1,56.8,29.81,WNW,292,7.0,11.0,45,0.00,,,0.00,Wunderground v.1.15,2013-07-08 03:45:00,
2013-07-07 20:50:00,80.2,56.3,29.81,West,281,5.0,5.0,44,0.00,,,0.00,Wunderground v.1.15,2013-07-08 03:50:00,
2013-07-07 20:55:00,80.3,56.4,29.81,West,275,3.0,10.0,44,0.00,,,0.00,Wunderground v.1.15,2013-07-08 03:55:00,
2013-07-07 21:00:00,80.1,56.8,29.81,West,262,4.0,6.0,45,0.00,,,0.00,Wunderground v.1.15,2013-07-08 04:00:00,
2013-07-07 21:05:00,80.0,56.7,29.81,West,266,5.0,6.0,45,0.00,,,0.00,Wunderground v.1.15,2013-07-08 04:05:00,
2013-07-07 21:10:00,80.0,56.7,29.81,WSW,257,6.0,6.0,45,0.00,,,0.00,Wunderground v.1.15,2013-07-08 04:10:00,
2013-07-07 21:15:00,79.8,57.2,29.81,West,279,6.0,6.0,46,0.00,,,0.00,Wunderground v.1.15,2013-07-08 04:15:00,
2013-07-07 21:20:00,79.6,57.6,29.81,WNW,288,6.0,11.0,47,0.00,,,0.00,Wunderground v.1.15,2013-07-08 04:20:00,
2013-07-07 21:25:00,79.1,58.3,29.81,West,280,7.0,11.0,49,0.00,,,0.00,Wunderground v.1.15,2013-07-08 04:25:00,
2013-07-07 21:30:00,78.7,58.5,29.81,West,271,9.0,10.0,50,0.00,,,0.00,Wunderground v.1.15,2013-07-08 04:30:00,
2013-07-07 21:35:00,78.3,58.7,29.81,West,271,9.0,10.0,51,0.00,,,0.00,Wunderground v.1.15,2013-07-08 04:35:00,
2013-07-07 21:40:00,78.0,58.9,29.81,WSW,257,8.0,8.0,52,0.00,,,0.00,Wunderground v.1.15,2013-07-08 04:40:00,
2013-07-07 21:45:00,77.7,59.2,29.81,West,266,8.0,8.0,53,0.00,,,0.00,Wunderground v.1.15,2013-07-08 04:45:00,
2013-07-07 21:50:00,77.4,58.9,29.81,West,270,8.0,8.0,53,0.00,,,0.00,Wunderground v.1.15,2013-07-08 04:50:00,
2013-07-07 21:55:00,77.2,59.3,29.81,West,277,7.0,8.0,54,0.00,,,0.00,Wunderground v.1.15,2013-07-08 04:55:00,
2013-07-07 22:00:00,76.9,59.5,29.81,West,276,6.0,10.0,55,0.00,,,0.00,Wunderground v.1.15,2013-07-08 05:00:00,
2013-07-07 22:10:00,76.3,59.4,29.81,WNW,291,4.0,4.0,56,0.00,,,0.00,Wunderground v.1.15,2013-07-08 05:10:00,
2013-07-07 22:15:00,76.0,59.7,29.81,WNW,289,2.0,10.0,57,0.00,,,0.00,Wunderground v.1.15,2013-07-08 05:15:00,
2013-07-07 22:20:00,75.8,59.5,29.81,WNW,289,1.0,1.0,57,0.00,,,0.00,Wunderground v.1.15,2013-07-08 05:20:00,
2013-07-07 22:25:00,75.8,59.5,29.81,WNW,288,1.0,2.0,57,0.00,,,0.00,Wunderground v.1.15,2013-07-08 05:25:00,
2013-07-07 22:35:00,75.9,59.1,29.81,West,272,3.0,3.0,56,0.00,,,0.00,Wunderground v.1.15,2013-07-08 05:35:00,
2013-07-07 22:40:00,76.0,59.2,29.81,West,269,3.0,3.0,56,0.00,,,0.00,Wunderground v.1.15,2013-07-08 05:40:00,
2013-07-07 22:45:00,76.0,59.2,29.81,WSW,257,2.0,4.0,56,0.00,,,0.00,Wunderground v.1.15,2013-07-08 05:45:00,
2013-07-07 22:50:00,76.0,58.7,29.81,WSW,253,3.0,10.0,55,0.00,,,0.00,Wunderground v.1.15,2013-07-08 05:50:00,
2013-07-07 22:55:00,76.1,58.8,29.81,WSW,253,4.0,10.0,55,0.00,,,0.00,Wunderground v.1.15,2013-07-08 05:55:00,
2013-07-07 23:00:00,76.2,58.3,29.81,WSW,258,3.0,6.0,54,0.00,,,0.00,Wunderground v.1.15,2013-07-08 06:00:00,
2013-07-07 23:10:00,76.3,58.4,29.81,West,271,3.0,6.0,54,0.00,,,0.00,Wunderground v.1.15,2013-07-08 06:10:00,
2013-07-07 23:15:00,76.3,57.9,29.81,West,264,4.0,6.0,53,0.00,,,0.00,Wunderground v.1.15,2013-07-08 06:15:00,
2013-07-07 23:20:00,76.3,58.4,29.81,West,259,4.0,4.0,54,0.00,,,0.00,Wunderground v.1.15,2013-07-08 06:20:00,
2013-07-07 23:25:00,76.2,58.3,29.81,WSW,242,4.0,6.0,54,0.00,,,0.00,Wunderground v.1.15,2013-07-08 06:25:00,
2013-07-07 23:30:00,76.3,57.9,29.81,WSW,237,4.0,4.0,53,0.00,,,0.00,Wunderground v.1.15,2013-07-08 06:30:00,
2013-07-07 23:35:00,76.4,58.5,29.81,WSW,237,4.0,6.0,54,0.00,,,0.00,Wunderground v.1.15,2013-07-08 06:35:00,
2013-07-07 23:40:00,76.2,58.3,29.81,SW,235,3.0,3.0,54,0.00,,,0.00,Wunderground v.1.15,2013-07-08 06:40:00,
2013-07-07 23:45:00,76.1,59.8,29.81,SW,234,3.0,6.0,57,0.00,,,0.00,Wunderground v.1.15,2013-07-08 06:45:00,
2013-07-07 23:50:00,75.7,59.9,29.81,SW,235,2.0,2.0,58,0.00,,,0.00,Wunderground v.1.15,2013-07-08 06:50:00,
2013-07-07 23:55:00,75.6,61.2,29.81,SW,235,0.0,6.0,61,0.00,,,0.00,Wunderground v.1.15,2013-07-08 06:55:00,